Location: Greenwich
(51.4790°N, 0.0090°E)
Time: 14:33:36
(UTC+01:00)

Altair - Pass Details

Date: 26 June 2025
Orbit: 1502 x 1682 km, 47.2° (Epoch: 19 July)

Event Time Altitude Azimuth Distance (km) Brightness Sun altitude
Rises 03:46:25 0° 284° (WNW) 4,683 9.8 -7.0°
Reaches altitude 10° 03:49:36 10° 278° (W) 3,718 9.2 -6.7°
Maximum altitude 03:58:15 44° 211° (SSW) 2,086 7.8 -5.9°
Drops below altitude 10° 04:07:13 10° 144° (SE) 3,839 9.5 -5.0°
Sets 04:10:34 0° 138° (SE) 4,848 10.1 -4.6°
